Total_Precipitation_Accumulation
1.48 1.57 1.49 1.39 1.37 1.45 1.69 1.84 1.88 1.66 1.46 1.28 1.13 0.87 0.83 0.73 0.62 0.54 0.47 0.32 0.22 0.19 0.18 0.19 0.22 0.25 0.29 0.36 0.45 0.53 0.61 0.71 0.83 0.95 1.02 1.08 1.13 1.18
1.52 1.60 1.63 1.58 1.58 1.61 1.73 1.87 1.94 1.92 1.61 1.36 1.31 1.05 0.91 0.71 0.62 0.53 0.41 0.30 0.21 0.17 0.16 0.15 0.15 0.18 0.22 0.25 0.29 0.34 0.40 0.49 0.58 0.70 0.80 0.86 0.88 0.93
1.25 1.36 1.50 1.64 1.65 1.68 1.74 1.78 1.88 1.97 1.69 1.63 1.72 1.53 1.31 1.02 0.79 0.63 0.45 0.38 0.28 0.20 0.17 0.17 0.16 0.17 0.20 0.24 0.26 0.28 0.33 0.38 0.44 0.52 0.63 0.71 0.72 0.77
1.11 1.15 1.14 1.21 1.30 1.40 1.50 1.65 1.77 1.93 1.81 1.82 2.01 1.95 1.66 1.29 1.05 0.85 0.59 0.44 0.36 0.28 0.20 0.16 0.18 0.19 0.20 0.23 0.27 0.31 0.32 0.35 0.41 0.47 0.52 0.61 0.68 0.74
0.91 0.91 0.84 0.87 0.94 1.05 1.13 1.31 1.51 1.79 1.85 1.93 2.13 2.07 1.79 1.51 1.30 0.99 0.77 0.66 0.47 0.39 0.28 0.19 0.16 0.18 0.22 0.22 0.26 0.34 0.37 0.36 0.37 0.44 0.51 0.58 0.67 0.74
0.68 0.64 0.64 0.72 0.78 0.87 0.99 1.04 1.17 1.40 1.57 1.74 1.99 2.03 1.86 1.70 1.53 1.20 0.98 0.85 0.67 0.50 0.46 0.31 0.25 0.21 0.22 0.24 0.27 0.34 0.45 0.49 0.50 0.52 0.56 0.62 0.67 0.71
0.58 0.49 0.47 0.54 0.60 0.66 0.74 0.87 0.96 1.14 1.28 1.48 1.74 1.94 1.79 1.63 1.47 1.32 1.16 1.06 0.91 0.72 0.69 0.54 0.43 0.35 0.28 0.26 0.29 0.37 0.53 0.65 0.68 0.69 0.72 0.76 0.81 0.84
0.50 0.41 0.35 0.39 0.45 0.52 0.62 0.69 0.78 0.89 1.04 1.29 1.52 1.66 1.55 1.46 1.46 1.43 1.34 1.18 1.11 0.97 0.98 0.95 0.84 0.75 0.57 0.39 0.32 0.33 0.44 0.67 0.81 0.84 0.88 0.90 0.93 0.97
0.37 0.39 0.33 0.31 0.36 0.39 0.45 0.48 0.58 0.69 0.80 1.01 1.21 1.36 1.44 1.37 1.46 1.52 1.51 1.46 1.42 1.32 1.34 1.39 1.31 1.25 0.83 0.66 0.58 0.45 0.41 0.47 0.63 0.77 0.82 0.91 0.97 1.00
0.30 0.31 0.32 0.33 0.32 0.29 0.34 0.38 0.38 0.43 0.52 0.60 0.77 1.04 1.45 1.59 1.48 1.50 1.57 1.57 1.55 1.52 1.53 1.69 1.55 1.52 1.21 0.84 0.63 0.45 0.39 0.39 0.46 0.58 0.70 0.79 0.92 1.04
0.29 0.25 0.24 0.26 0.31 0.29 0.29 0.29 0.31 0.33 0.41 0.51 0.65 0.85 1.07 1.33 1.42 1.40 1.41 1.42 1.58 1.64 1.56 1.67 1.69 1.59 1.62 1.39 0.90 0.56 0.38 0.33 0.37 0.44 0.55 0.66 0.78 0.90
0.33 0.28 0.23 0.22 0.24 0.25 0.26 0.24 0.24 0.25 0.29 0.37 0.46 0.61 0.76 0.89 0.92 0.85 0.85 0.90 1.00 1.16 1.17 1.34 1.60 1.64 1.82 1.90 1.52 1.02 0.69 0.50 0.40 0.38 0.43 0.52 0.64 0.67
0.37 0.33 0.26 0.22 0.21 0.21 0.24 0.26 0.25 0.27 0.31 0.35 0.40 0.47 0.64 0.77 0.80 0.72 0.70 0.69 0.69 0.65 0.57 0.64 0.89 1.09 1.41 1.77 1.74 1.38 1.08 0.89 0.70 0.55 0.48 0.50 0.58 0.64
0.48 0.42 0.35 0.27 0.24 0.23 0.22 0.25 0.28 0.26 0.29 0.35 0.39 0.41 0.46 0.58 0.66 0.65 0.64 0.66 0.66 0.61 0.47 0.43 0.53 0.55 0.63 0.91 1.17 1.14 1.02 0.97 0.99 0.97 0.84 0.75 0.68 0.71
0.55 0.51 0.41 0.33 0.30 0.27 0.23 0.25 0.29 0.27 0.27 0.30 0.34 0.34 0.34 0.41 0.54 0.65 0.68 0.67 0.68 0.62 0.49 0.34 0.31 0.35 0.42 0.52 0.65 0.72 0.75 0.80 0.95 1.13 1.17 1.06 0.94 0.87
0.57 0.57 0.49 0.39 0.35 0.32 0.27 0.25 0.28 0.29 0.28 0.27 0.29 0.34 0.36 0.41 0.49 0.56 0.64 0.65 0.61 0.58 0.50 0.39 0.29 0.27 0.31 0.37 0.42 0.47 0.52 0.61 0.70 0.88 1.12 1.26 1.24 1.17
0.68 0.68 0.64 0.53 0.43 0.39 0.33 0.30 0.32 0.34 0.33 0.32 0.32 0.36 0.37 0.40 0.46 0.49 0.55 0.59 0.51 0.46 0.43 0.40 0.35 0.31 0.28 0.29 0.36 0.38 0.38 0.44 0.51 0.58 0.69 0.83 0.91 0.95
0.69 0.71 0.69 0.65 0.55 0.51 0.45 0.41 0.39 0.37 0.36 0.35 0.35 0.35 0.37 0.37 0.41 0.44 0.45 0.48 0.48 0.41 0.38 0.36 0.34 0.35 0.36 0.33 0.25 0.27 0.31 0.33 0.37 0.41 0.44 0.50 0.51 0.45
0.67 0.70 0.67 0.64 0.60 0.56 0.54 0.49 0.43 0.42 0.43 0.40 0.37 0.36 0.37 0.37 0.38 0.39 0.40 0.39 0.43 0.42 0.37 0.34 0.33 0.31 0.32 0.31 0.26 0.15 0.17 0.23 0.27 0.32 0.34 0.33 0.35 0.31
0.63 0.69 0.69 0.63 0.58 0.56 0.55 0.52 0.47 0.48 0.52 0.47 0.41 0.39 0.39 0.37 0.38 0.35 0.34 0.31 0.33 0.37 0.37 0.31 0.29 0.30 0.30 0.27 0.26 0.26 0.14 0.13 0.16 0.19 0.21 0.22 0.24 0.19
0.64 0.72 0.73 0.66 0.59 0.56 0.53 0.51 0.49 0.49 0.52 0.50 0.44 0.39 0.40 0.37 0.35 0.33 0.32 0.33 0.31 0.29 0.30 0.26 0.22 0.25 0.30 0.36 0.38 0.39 0.34 0.21 0.14 0.13 0.13 0.15 0.20 0.23
0.62 0.70 0.69 0.61 0.56 0.53 0.49 0.48 0.51 0.53 0.55 0.52 0.45 0.38 0.39 0.39 0.33 0.32 0.32 0.30 0.27 0.25 0.26 0.28 0.28 0.28 0.29 0.35 0.38 0.39 0.40 0.36 0.29 0.22 0.18 0.14 0.11 0.14
0.60 0.63 0.59 0.53 0.49 0.46 0.42 0.43 0.48 0.53 0.53 0.49 0.44 0.37 0.36 0.39 0.34 0.31 0.31 0.30 0.29 0.28 0.31 0.33 0.34 0.34 0.32 0.28 0.29 0.32 0.34 0.36 0.38 0.39 0.37 0.23 0.10 0.06